Skip Page Navigation
NASA JPL Caltech
NASA Logo - Jet Propulsion Laboratory + View the NASA Portal
+ Center for Near-Earth Object Studies
JPL Home Earth Solar System Stars & Galaxies Technology
JPL Solar System Dynamics
BODIES ORBITS EPHEMERIDES TOOLS PHYSICAL DATA DISCOVERY FAQ SITE MAP
IMPORTANT: The SSD Announcement email list is now available. Major changes are coming in the near future, including possible hostname and/or URL changes. To be notified of such changes, subscribe to this email list.

Please visit this page for more details.


JPL Small-Body Database Browser
Search: [ help ]  
4730 Xingmingzhou (1980 XZ)
Classification: Main-belt Asteroid          SPK-ID: 2004730
Ephemeris | Orbit Diagram | Orbital Elements | Mission Design | Physical Parameters | Discovery Circumstances | Close-Approach Data ]

[ show orbit diagram ]
Orbital Elements at Epoch 2459000.5 (2020-May-31.0) TDB
Reference: JPL 33 (heliocentric ecliptic J2000)
 Element Value Uncertainty (1-sigma)   Units 
e .04411195441783295 3.3308e-08  
a 3.125125596376579 1.9308e-08 au
q 2.987270198519212 1.0501e-07 au
i 11.98558615910206 4.2874e-06 deg
node 80.5821794141785 2.0197e-05 deg
peri 205.9608621720342 5.8361e-05 deg
M 196.1874581911283 5.5972e-05 deg
tp 2459918.714801425015
(2022-Dec-05.21480143)
0.00031494 TDB
period 2017.900002422788
5.52
1.8701e-05
5.12e-08
d
yr
n .1784032903353817 1.6533e-09 deg/d
Q 3.262980994233946 2.0159e-08 au
  Orbit Determination Parameters
   # obs. used (total)      2126  
   data-arc span      32147 days (88.01 yr)  
   first obs. used      1932-01-28  
   last obs. used      2020-02-02  
   planetary ephem.      DE431  
   SB-pert. ephem.      SB431-N16  
   condition code      0  
   norm. resid. RMS      .44485  
   source      ORB  
   producer      Otto Matic  
   solution date      2020-Feb-22 17:20:11  

Additional Information
 Earth MOID = 1.97522 au 
 Jupiter MOID = 1.82683 au 
 T_jup = 3.180 
[ show covariance matrix ]

Ephemeris | Orbit Diagram | Orbital Elements | Mission Design | Physical Parameters | Discovery Circumstances | Close-Approach Data ]

Physical Parameter Table
Parameter Symbol Value Units Sigma Reference Notes
absolute magnitude H 11.4   n/a MPO384796  
diameter diameter 24.628 km 0.154 urn:nasa:pds:neowise_diameters_albedos::2.0[mainbelt] (http://adsabs.harvard.edu/abs/2014ApJ...791..121M)  
rotation period rot_per 3.396 h n/a LCDB (Rev. 2019-August); Warner et al., 2009 Published Reference List:
[Waszczak, A.; Chang, C.-K.; Ofeck, E.O.; Laher, F.; et al. (2015) Astron. J. 150, A75.]
[Tan, H.; Gao, X. (2019) Minor Planet Bull. 46, 82-84.]
geometric albedo albedo 0.104   0.026 urn:nasa:pds:neowise_diameters_albedos::2.0[mainbelt] (http://adsabs.harvard.edu/abs/2014ApJ...791..121M)  

4730 Xingmingzhou           Discovered 1980 Dec. 7 at the Purple Mountain Observatory.
Xing-Ming Zhou (1965-2004), a meteorologist and comet hunter from Xinjiang province, detected 64 near-sun comets in SOHO's LASCO images and one in SOHO's SWAN images. He also independently discovered two other comets. A tireless and precise observer, he chronicled his observations on the Silk Road Astronomy website.
NOTE: some special characters may not display properly (any characters within {} are an attempt to place the proper accent above a character)
Reference: 20040928/MPCPages.arcLast Updated: 2004-09-28

[ show close-approach data ]
Alternate Designations
 1980 XZ = 1932 BE = 1983 GR2 = 1983 JJ1 
Ephemeris | Orbit Diagram | Orbital Elements | Mission Design | Physical Parameters | Discovery Circumstances | Close-Approach Data ]
ABOUT SSD CREDITS/AWARDS PRIVACY/COPYRIGHT GLOSSARY LINKS
FirstGov 2020-Apr-05 09:13 UT
(server date/time)  
NASA Home Page
Site Manager:   Ryan S. Park
Webmaster  Alan B. Chamberlin